Погода в Гремучем

Россия / Красноярский край     58°24′24″N   97°26′25″E
темп.,
°C
ветер,
м/с
пор.,
м/с
влажн.,
%
обл.,
%
осадки,
мм/ч
давл.,
гПа
погр.,
м
8 мая, сб
сб801:00+4юв41193100 8.4 1006616
04:00+3ююв3895100 3.1 1006460
07:00+6з3988100 3.2 1007877
10:00+9зсз4764100 0.1 10081447
13:00+10зсз2459100 0.1 10081225
16:00+9з3562100 0.7 10091335
19:00+8сз2469100 0.9 1010188
22:00+3св11885 0.0 101011
9 мая, вс
вс901:00+2ссв119469 0.0 101010
04:00+1с119799 0.0 101022
07:00+4ссв2486100 0.0 1011424
10:00+5ссв3490100 0.1 1012608
13:00+4ссв2796100 2.1 1014576
16:00+5с3791100 1.1 1014591
19:00+5с388999 1.1 1016415
22:00+4ссз2697100 0.2 1017221
10 мая, пн
пн1001:00+3ссз22965 0.4 101839
04:00+1ссз22955 0.0 101920
07:00+4ссв26825 0.0 1021333
10:00+10ссв47625 0.0 10211290
13:00+11св4649100 0.1 10211825
16:00+12ссв354391 0.0 10212106
19:00+11ссв23577 0.0 102184
22:00+6ссв117813 0.0 102210
11 мая, вт
вт1101:00+4ссз118692 0.0 102210
04:00+3с1192100 0.1 102110
07:00+6с1283100 0.3 1021223
10:00+9ссв2272100 0.3 1020870
13:00+8св4575100 0.5 1020758
16:00+8св4669100 0.0 1020978
19:00+6св367297 0.0 1020962
22:00+5св398088 0.0 1020457
12 мая, ср
ср1201:00+4св3108071 0.1 1020434
04:000св24865 0.0 1021113
07:00+3св38620 0.0 1021536
10:00+7св46426 0.0 10201657
13:00+10св4534100 0.0 10192413
16:00+10ссв453898 0.0 10192187
19:00+8св35455 0.0 10191038
22:00+3ссв11655 0.0 102110